sat.trackr.live / text

‹ back to catalog

STARLINK-35293

NORAD 66012 · 2025-232H

PAYLOAD ACTIVE UNKNOWN

§ Identity

Operator
Country
US
Launch date
2025-10-16
Launch site
AFETR
Launch vehicle
Mass (kg)
RCS (m²)

Purposes: comms

External: N2YO · Heavens-Above · Gunter

§ Orbital elements

Epoch: 2026-09-20T13:24:21.035520Z

Period
93.85 min
Inclination
53.1591°
Eccentricity
0.0001048
Mean motion
15.34400842 rev/d
Perigee alt
462.0 km
Apogee alt
463.4 km
Semi-major
6,840.8 km
B*
4.4489e-4
RAAN
277.1510°
Arg perigee
72.2677°
Mean anomaly
287.8440°
Rev number
5,329

§ Raw data

STARLINK-352931 66012U 25232H   26263.55857680  .00014685  00000+0  44489-3 0  99972 66012  53.1591 277.1510 0001048  72.2677 287.8440 15.34400842 53291

JSON: /api/v1/satellites/66012 · /tle

For live sub-satellite position, see the globe view (requires WebGL).

§ Visibility from observer

Set your observer location to see the next 7 days of passes ≥ 10°. The values pass through the URL so the page stays shareable.

No JS? Fill the form by hand. The geolocation button needs JavaScript.